User: anonymous   Login
Location: Unspecified
(0.0000°N, 0.0000°E)
Time: 00:21:08
(UTC+00:00)
Language:

USA-164 - Orbit

View from above orbital plane
View from above orbital plane
View from above satellite
View from above satellite

Ground track
Ground track

The orbit data is extracted from the following two-line orbital elements,

1 27168U 02001A   17051.67112458 0.00000000  00000-0  00000-0 0    08
2 27168   7.4855  37.7149 0004236 174.3614 185.6569  1.00270000    07
Epoch (UTC): 20 February 2017 16:06:25
Eccentricity: 0.0004236
inclination: 7.4855°
perigee height: 35769 km
apogee height: 35804 km
right ascension of ascending node: 37.7149°
argument of perigee: 174.3614°
revolutions per day: 1.00270000
mean anomaly at epoch: 185.6569°
orbit number at epoch: 0

The dashed part of the orbit path shows where the satellite is in the earth's shadow,  

DLR